• în România
  • Lista ţărilor
  • Pe 7 zile
  • Temperatura apei
  • Hartă satelitară
  • Meteo pe hartă
  • Widget-uri
  • user-avatar
    Intrare

    Meteo pe oră la Luanda

    Astăzi, 26 Iunie, Luni

    Timp Temperatura Precipitaţii Vânt Presiune Umiditate
    00:00 +20°C° 0 mm 3 m/s 755 mmHg 94%
    01:00 +20°C° 0 mm 2 m/s 755 mmHg 95%
    02:00 +20°C° 0 mm 2 m/s 755 mmHg 95%
    03:00 +19°C° 0 mm 2 m/s 755 mmHg 95%
    04:00 +20°C° 0 mm 1 m/s 755 mmHg 96%
    05:00 +19°C° 0 mm 2 m/s 755 mmHg 94%
    06:00 +20°C° 0 mm 2 m/s 755 mmHg 92%
    07:00 +20°C° 0 mm 2 m/s 755 mmHg 89%
    08:00 +24°C° 0 mm 2 m/s 755 mmHg 75%
    09:00 +27°C° 0 mm 2 m/s 756 mmHg 60%
    10:00 +30°C° 0 mm 1 m/s 756 mmHg 46%
    11:00 +32°C° 0 mm 2 m/s 755 mmHg 41%
    12:00 +35°C° 0 mm 2 m/s 754 mmHg 35%
    13:00 +34°C° 0 mm 1 m/s 754 mmHg 38%
    14:00 +34°C° 0 mm 2 m/s 754 mmHg 39%
    15:00 +34°C° 0 mm 2 m/s 753 mmHg 39%
    16:00 +34°C° 0 mm 3 m/s 753 mmHg 39%
    17:00 +30°C° 0 mm 3 m/s 753 mmHg 50%
    18:00 +28°C° 0 mm 4 m/s 754 mmHg 60%
    19:00 +25°C° 0 mm 4 m/s 754 mmHg 71%
    20:00 +23°C° 0 mm 4 m/s 755 mmHg 74%
    21:00 +23°C° 0 mm 4 m/s 755 mmHg 77%
    22:00 +22°C° 0 mm 4 m/s 756 mmHg 80%
    23:00 +21°C° 0 mm 4 m/s 756 mmHg 83%

    Mâine, 27 Iunie, Marţi

    Timp Temperatura Precipitaţii Vânt Presiune Umiditate
    00:00 +21°C° 0 mm 3 m/s 756 mmHg 86%
    01:00 +20°C° 0 mm 3 m/s 756 mmHg 89%
    02:00 +20°C° 0 mm 3 m/s 756 mmHg 91%
    03:00 +20°C° 0 mm 3 m/s 755 mmHg 92%
    04:00 +20°C° 0 mm 2 m/s 755 mmHg 94%
    05:00 +20°C° 0 mm 2 m/s 755 mmHg 92%
    06:00 +20°C° 0 mm 2 m/s 755 mmHg 91%
    07:00 +20°C° 0 mm 2 m/s 756 mmHg 90%
    08:00 +24°C° 0 mm 2 m/s 756 mmHg 76%
    09:00 +27°C° 0 mm 2 m/s 756 mmHg 62%
    10:00 +30°C° 0 mm 2 m/s 756 mmHg 49%
    11:00 +31°C° 0 mm 3 m/s 756 mmHg 44%
    12:00 +34°C° 0 mm 4 m/s 755 mmHg 39%
    13:00 +35°C° 0 mm 4 m/s 755 mmHg 34%
    14:00 +34°C° 0 mm 4 m/s 754 mmHg 40%
    15:00 +33°C° 0 mm 5 m/s 754 mmHg 45%
    16:00 +30°C° 0 mm 5 m/s 753 mmHg 50%
    17:00 +28°C° 0 mm 5 m/s 754 mmHg 62%
    18:00 +26°C° 0 mm 4 m/s 754 mmHg 73%
    19:00 +23°C° 0 mm 4 m/s 755 mmHg 85%
    20:00 +22°C° 0 mm 4 m/s 755 mmHg 89%
    21:00 +21°C° 0 mm 3 m/s 756 mmHg 92%
    22:00 +21°C° 0 mm 3 m/s 756 mmHg 96%
    23:00 +20°C° 0 mm 2 m/s 756 mmHg 97%

    Poimâine, 28 Iunie, Miercuri

    Timp Temperatura Precipitaţii Vânt Presiune Umiditate
    00:00 +20°C° 0 mm 2 m/s 756 mmHg 97%
    01:00 +20°C° 0 mm 1 m/s 756 mmHg 98%
    02:00 +20°C° 0 mm 1 m/s 756 mmHg 98%
    03:00 +20°C° 0 mm 1 m/s 755 mmHg 98%
    04:00 +20°C° 0 mm 1 m/s 755 mmHg 98%
    05:00 +21°C° 0 mm 1 m/s 755 mmHg 97%
    06:00 +21°C° 0 mm 1 m/s 755 mmHg 95%
    07:00 +22°C° 0 mm 1 m/s 755 mmHg 94%
    08:00 +25°C° 0 mm 1 m/s 756 mmHg 80%
    09:00 +27°C° 0 mm 1 m/s 756 mmHg 67%
    10:00 +29°C° 0 mm 1 m/s 756 mmHg 54%
    11:00 +31°C° 0 mm 2 m/s 755 mmHg 49%
    12:00 +33°C° 0 mm 3 m/s 754 mmHg 44%
    13:00 +35°C° 0 mm 4 m/s 754 mmHg 39%
    14:00 +33°C° 0 mm 4 m/s 753 mmHg 46%
    15:00 +30°C° 0 mm 5 m/s 753 mmHg 53%
    16:00 +29°C° 0 mm 5 m/s 752 mmHg 60%
    17:00 +27°C° 0 mm 5 m/s 752 mmHg 69%
    18:00 +25°C° 0 mm 5 m/s 753 mmHg 77%
    19:00 +22°C° 0 mm 4 m/s 753 mmHg 86%
    20:00 +22°C° 0 mm 3 m/s 754 mmHg 89%
    21:00 +21°C° 0 mm 2 m/s 755 mmHg 92%
    22:00 +21°C° 0 mm 1 m/s 755 mmHg 95%
    23:00 +22°C° 0 mm 1 m/s 755 mmHg 96%

    29 Iunie, Joi

    Timp Temperatura Precipitaţii Vânt Presiune Umiditate
    00:00 +22°C° 0 mm 1 m/s 755 mmHg 96%
    01:00 +22°C° 0 mm 1 m/s 755 mmHg 96%
    02:00 +22°C° 0 mm 1 m/s 755 mmHg 96%
    03:00 +21°C° 0 mm 2 m/s 755 mmHg 96%
    04:00 +21°C° 0 mm 2 m/s 754 mmHg 96%
    05:00 +21°C° 0 mm 2 m/s 755 mmHg 94%
    06:00 +21°C° 0 mm 2 m/s 755 mmHg 92%
    07:00 +21°C° 0 mm 2 m/s 756 mmHg 91%
    08:00 +25°C° 0 mm 2 m/s 756 mmHg 78%
    09:00 +27°C° 0 mm 2 m/s 756 mmHg 65%
    10:00 +30°C° 0 mm 1 m/s 756 mmHg 52%
    11:00 +31°C° 0 mm 2 m/s 755 mmHg 49%
    12:00 +33°C° 0 mm 3 m/s 755 mmHg 45%
    13:00 +34°C° 0 mm 4 m/s 754 mmHg 42%
    14:00 +33°C° 0 mm 4 m/s 753 mmHg 48%
    15:00 +30°C° 0 mm 5 m/s 753 mmHg 55%
    16:00 +29°C° 0 mm 5 m/s 752 mmHg 61%
    17:00 +27°C° 0 mm 5 m/s 753 mmHg 70%
    18:00 +25°C° 0 mm 5 m/s 753 mmHg 79%
    19:00 +22°C° 0 mm 5 m/s 754 mmHg 87%
    20:00 +22°C° 0 mm 4 m/s 755 mmHg 90%
    21:00 +21°C° 0 mm 3 m/s 755 mmHg 92%
    22:00 +21°C° 0 mm 2 m/s 756 mmHg 94%
    23:00 +20°C° 0 mm 2 m/s 756 mmHg 95%

    30 Iunie, Vineri

    Timp Temperatura Precipitaţii Vânt Presiune Umiditate
    00:00 +20°C° 0 mm 2 m/s 756 mmHg 95%
    01:00 +20°C° 0 mm 2 m/s 756 mmHg 96%
    02:00 +21°C° 0 mm 1 m/s 755 mmHg 96%
    03:00 +20°C° 0 mm 1 m/s 755 mmHg 96%
    04:00 +20°C° 0 mm 1 m/s 755 mmHg 97%
    05:00 +20°C° 0 mm 1 m/s 756 mmHg 96%
    06:00 +21°C° 0 mm 1 m/s 756 mmHg 95%
    07:00 +21°C° 0 mm 1 m/s 756 mmHg 94%
    08:00 +24°C° 0 mm 1 m/s 756 mmHg 80%
    09:00 +27°C° 0 mm 1 m/s 757 mmHg 65%
    10:00 +30°C° 0 mm 1 m/s 757 mmHg 51%
    11:00 +31°C° 0 mm 2 m/s 756 mmHg 48%
    12:00 +33°C° 0 mm 3 m/s 755 mmHg 45%
    13:00 +34°C° 0 mm 4 m/s 754 mmHg 42%
    14:00 +32°C° 0 mm 4 m/s 754 mmHg 49%
    15:00 +30°C° 0 mm 5 m/s 753 mmHg 55%
    16:00 +28°C° 0 mm 5 m/s 753 mmHg 62%
    17:00 +26°C° 0 mm 5 m/s 753 mmHg 70%
    18:00 +25°C° 0 mm 4 m/s 754 mmHg 78%
    19:00 +22°C° 0 mm 4 m/s 755 mmHg 86%
    20:00 +21°C° 0 mm 4 m/s 755 mmHg 89%
    21:00 +20°C° 0 mm 3 m/s 756 mmHg 93%
    22:00 +20°C° 0 mm 3 m/s 756 mmHg 96%
    23:00 +20°C° 0 mm 2 m/s 756 mmHg 94%

    1 Iulie, Sâmbătă

    Timp Temperatura Precipitaţii Vânt Presiune Umiditate
    00:00 +21°C° 0 mm 2 m/s 756 mmHg 93%
    01:00 +21°C° 0 mm 2 m/s 756 mmHg 92%
    02:00 +21°C° 0 mm 2 m/s 756 mmHg 92%
    03:00 +22°C° 0 mm 1 m/s 755 mmHg 91%
    04:00 +22°C° 0 mm 1 m/s 755 mmHg 91%
    05:00 +22°C° 0 mm 1 m/s 756 mmHg 88%
    06:00 +22°C° 0 mm 1 m/s 756 mmHg 86%
    07:00 +23°C° 0 mm 1 m/s 756 mmHg 83%
    08:00 +24°C° 0 mm 1 m/s 756 mmHg 75%
    09:00 +26°C° 0 mm 1 m/s 756 mmHg 66%
    10:00 +28°C° 0 mm 1 m/s 756 mmHg 58%
    11:00 +30°C° 0 mm 1 m/s 756 mmHg 51%
    12:00 +32°C° 0 mm 2 m/s 755 mmHg 43%
    13:00 +35°C° 0 mm 3 m/s 754 mmHg 36%
    14:00 +33°C° 0 mm 4 m/s 753 mmHg 42%
    15:00 +32°C° 0 mm 4 m/s 753 mmHg 48%
    16:00 +30°C° 0 mm 5 m/s 752 mmHg 54%
    17:00 +27°C° 0 mm 5 m/s 753 mmHg 64%
    18:00 +25°C° 0 mm 4 m/s 753 mmHg 74%
    19:00 +22°C° 0 mm 4 m/s 754 mmHg 84%
    20:00 +21°C° 0 mm 3 m/s 754 mmHg 88%
    21:00 +20°C° 0 mm 3 m/s 755 mmHg 92%
    22:00 +19°C° 0 mm 2 m/s 755 mmHg 96%
    23:00 +19°C° 0 mm 2 m/s 755 mmHg 96%
    Arată mai mult